Time,TemperatureF,DewpointF,PressureIn,WindDirection,WindDirectionDegrees,WindSpeedMPH,WindSpeedGustMPH,Humidity,HourlyPrecipIn,Conditions,Clouds,dailyrainin,SoftwareType,DateUTC
2013-05-06 00:02:00,56.0,51.0,29.98,ENE,59,0.0,0.0,84,0.00,,,0.00,,2013-05-06 04:02:00,
2013-05-06 00:12:00,56.0,51.0,29.98,ENE,59,0.0,0.0,84,0.00,,,0.00,,2013-05-06 04:12:00,
2013-05-06 00:23:00,56.0,51.0,29.98,ENE,59,0.0,0.0,84,0.00,,,0.00,,2013-05-06 04:23:00,
2013-05-06 00:32:00,56.0,52.0,29.98,ENE,59,0.0,0.0,85,0.00,,,0.00,,2013-05-06 04:32:00,
2013-05-06 00:42:00,56.0,52.0,29.98,ENE,59,0.0,0.0,85,0.00,,,0.00,,2013-05-06 04:42:00,
2013-05-06 00:53:00,55.0,51.0,29.98,ENE,59,0.0,0.0,85,0.00,,,0.00,,2013-05-06 04:53:00,
2013-05-06 01:02:00,55.0,51.0,29.98,NE,55,0.0,3.0,86,0.00,,,0.00,,2013-05-06 05:02:00,
2013-05-06 01:12:00,55.0,51.0,29.98,NE,55,0.0,3.0,86,0.00,,,0.00,,2013-05-06 05:12:00,
2013-05-06 01:22:00,55.0,51.0,29.98,NE,55,0.0,0.0,86,0.00,,,0.00,,2013-05-06 05:22:00,
2013-05-06 01:32:00,55.0,51.0,29.97,NE,55,0.0,0.0,86,0.00,,,0.00,,2013-05-06 05:32:00,
2013-05-06 01:42:00,55.0,51.0,29.97,NE,55,0.0,0.0,86,0.00,,,0.00,,2013-05-06 05:42:00,
2013-05-06 01:52:00,55.0,51.0,29.97,NE,40,1.0,3.0,86,0.00,,,0.00,,2013-05-06 05:52:00,
2013-05-06 02:02:00,55.0,51.0,29.97,NNE,22,2.0,3.0,86,0.00,,,0.00,,2013-05-06 06:02:00,
2013-05-06 02:12:00,55.0,51.0,29.97,NNE,22,2.0,3.0,86,0.00,,,0.00,,2013-05-06 06:12:00,
2013-05-06 02:21:00,55.0,51.0,29.96,NE,41,2.0,4.0,86,0.00,,,0.00,,2013-05-06 06:21:00,
2013-05-06 02:31:00,55.0,51.0,29.95,NNE,23,2.0,5.0,86,0.00,,,0.00,,2013-05-06 06:31:00,
2013-05-06 02:42:00,55.0,51.0,29.95,NNE,23,2.0,5.0,86,0.00,,,0.00,,2013-05-06 06:42:00,
2013-05-06 02:52:00,55.0,51.0,29.95,NE,44,1.0,5.0,86,0.00,,,0.00,,2013-05-06 06:52:00,
2013-05-06 03:01:00,54.0,50.0,29.94,NNE,28,2.0,4.0,85,0.00,,,0.00,,2013-05-06 07:01:00,
2013-05-06 03:11:00,54.0,50.0,29.94,NNE,28,2.0,4.0,85,0.00,,,0.00,,2013-05-06 07:11:00,
2013-05-06 03:22:00,54.0,49.0,29.94,NNE,33,1.0,5.0,84,0.00,,,0.00,,2013-05-06 07:22:00,
2013-05-06 03:31:00,54.0,49.0,29.93,North,11,4.0,5.0,84,0.00,,,0.00,,2013-05-06 07:31:00,
2013-05-06 03:42:00,54.0,49.0,29.93,North,11,4.0,5.0,84,0.00,,,0.00,,2013-05-06 07:42:00,
2013-05-06 03:52:00,54.0,49.0,29.93,NNE,30,3.0,6.0,83,0.00,,,0.00,,2013-05-06 07:52:00,
2013-05-06 04:02:00,54.0,49.0,29.92,North,5,2.0,6.0,83,0.00,,,0.00,,2013-05-06 08:02:00,
2013-05-06 04:12:00,54.0,49.0,29.92,North,5,2.0,6.0,83,0.00,,,0.00,,2013-05-06 08:12:00,
2013-05-06 04:22:00,54.0,49.0,29.92,NE,44,2.0,5.0,83,0.00,,,0.00,,2013-05-06 08:22:00,
2013-05-06 04:31:00,54.0,49.0,29.92,NNE,24,2.0,4.0,82,0.00,,,0.00,,2013-05-06 08:31:00,
2013-05-06 04:42:00,54.0,49.0,29.92,NNE,24,2.0,4.0,82,0.00,,,0.00,,2013-05-06 08:42:00,
2013-05-06 04:52:00,54.0,49.0,29.92,NNE,33,1.0,4.0,82,0.00,,,0.00,,2013-05-06 08:52:00,
2013-05-06 05:01:00,54.0,49.0,29.92,NE,34,1.0,3.0,83,0.00,,,0.00,,2013-05-06 09:01:00,
2013-05-06 05:11:00,54.0,49.0,29.92,NE,34,1.0,3.0,83,0.00,,,0.00,,2013-05-06 09:11:00,
2013-05-06 05:22:00,54.0,49.0,29.93,NE,41,1.0,3.0,82,0.00,,,0.00,,2013-05-06 09:22:00,
2013-05-06 05:32:00,54.0,48.0,29.93,NE,56,0.0,4.0,81,0.00,,,0.00,,2013-05-06 09:32:00,
2013-05-06 05:42:00,54.0,48.0,29.93,NE,56,0.0,4.0,81,0.00,,,0.00,,2013-05-06 09:42:00,
2013-05-06 05:53:00,54.0,48.0,29.93,NE,53,1.0,5.0,80,0.00,,,0.00,,2013-05-06 09:53:00,
2013-05-06 06:02:00,54.0,48.0,29.93,NE,52,1.0,4.0,81,0.00,,,0.00,,2013-05-06 10:02:00,
2013-05-06 06:12:00,54.0,48.0,29.93,NE,52,1.0,4.0,81,0.00,,,0.00,,2013-05-06 10:12:00,
2013-05-06 06:22:00,55.0,49.0,29.94,NE,53,2.0,5.0,79,0.00,,,0.00,,2013-05-06 10:22:00,
2013-05-06 06:33:00,55.0,48.0,29.94,ENE,78,2.0,6.0,77,0.00,,,0.00,,2013-05-06 10:33:00,
2013-05-06 06:42:00,55.0,48.0,29.94,ENE,78,2.0,6.0,77,0.00,,,0.00,,2013-05-06 10:42:00,
2013-05-06 06:52:00,55.0,48.0,29.95,ENE,61,1.0,4.0,76,0.00,,,0.00,,2013-05-06 10:52:00,
2013-05-06 07:02:00,55.0,48.0,29.95,ENE,62,1.0,3.0,77,0.00,,,0.00,,2013-05-06 11:02:00,
2013-05-06 07:12:00,55.0,48.0,29.95,ENE,62,1.0,3.0,77,0.00,,,0.00,,2013-05-06 11:12:00,
2013-05-06 07:22:00,55.0,48.0,29.96,ENE,59,1.0,3.0,77,0.00,,,0.00,,2013-05-06 11:22:00,
2013-05-06 07:31:00,55.0,48.0,29.96,ENE,63,0.0,5.0,77,0.00,,,0.00,,2013-05-06 11:31:00,
2013-05-06 07:42:00,55.0,48.0,29.96,ENE,63,0.0,5.0,77,0.00,,,0.00,,2013-05-06 11:42:00,
2013-05-06 07:52:00,55.0,48.0,29.96,ENE,74,0.0,3.0,77,0.00,,,0.00,,2013-05-06 11:52:00,
2013-05-06 08:01:00,55.0,49.0,29.97,ENE,58,0.0,3.0,79,0.00,,,0.00,,2013-05-06 12:01:00,
2013-05-06 08:12:00,55.0,49.0,29.97,ENE,58,0.0,3.0,79,0.00,,,0.00,,2013-05-06 12:12:00,
2013-05-06 08:21:00,55.0,48.0,29.97,ENE,58,2.0,4.0,78,0.00,,,0.00,,2013-05-06 12:21:00,
2013-05-06 08:32:00,56.0,49.0,29.97,ENE,69,1.0,4.0,76,0.00,,,0.00,,2013-05-06 12:32:00,
2013-05-06 08:42:00,56.0,49.0,29.97,ENE,69,1.0,4.0,76,0.00,,,0.00,,2013-05-06 12:42:00,
2013-05-06 08:52:00,57.0,49.0,29.98,ENE,60,2.0,6.0,74,0.00,,,0.00,,2013-05-06 12:52:00,
2013-05-06 09:01:00,57.0,48.0,29.98,East,81,2.0,7.0,71,0.00,,,0.00,,2013-05-06 13:01:00,
2013-05-06 09:11:00,57.0,48.0,29.98,East,81,2.0,7.0,71,0.00,,,0.00,,2013-05-06 13:11:00,
2013-05-06 09:21:00,58.0,48.0,29.98,East,82,2.0,8.0,69,0.00,,,0.00,,2013-05-06 13:21:00,
2013-05-06 09:32:00,58.0,48.0,29.98,East,82,2.0,8.0,69,0.00,,,0.00,,2013-05-06 13:32:00,
2013-05-06 09:42:00,58.0,48.0,29.98,East,82,2.0,8.0,69,0.00,,,0.00,,2013-05-06 13:42:00,
2013-05-06 09:52:00,60.0,48.0,29.98,ENE,73,1.0,8.0,64,0.00,,,0.00,,2013-05-06 13:52:00,
2013-05-06 10:01:00,60.0,48.0,29.98,ENE,69,3.0,8.0,64,0.00,,,0.00,,2013-05-06 14:01:00,
2013-05-06 10:11:00,60.0,48.0,29.98,ENE,69,3.0,8.0,64,0.00,,,0.00,,2013-05-06 14:11:00,
2013-05-06 10:21:00,61.0,48.0,29.99,NE,44,3.0,10.0,63,0.00,,,0.00,,2013-05-06 14:21:00,
2013-05-06 10:32:00,62.0,49.0,29.99,NE,53,3.0,5.0,63,0.00,,,0.00,,2013-05-06 14:32:00,
2013-05-06 10:42:00,62.0,49.0,29.99,NE,53,3.0,5.0,63,0.00,,,0.00,,2013-05-06 14:42:00,
2013-05-06 10:52:00,62.0,49.0,29.99,East,83,3.0,7.0,62,0.00,,,0.00,,2013-05-06 14:52:00,
2013-05-06 11:01:00,63.0,50.0,29.99,NE,51,3.0,7.0,62,0.00,,,0.00,,2013-05-06 15:01:00,
2013-05-06 11:11:00,63.0,50.0,29.99,NE,51,3.0,7.0,62,0.00,,,0.00,,2013-05-06 15:11:00,
2013-05-06 11:21:00,64.0,50.0,29.99,NE,50,2.0,6.0,61,0.00,,,0.00,,2013-05-06 15:21:00,
2013-05-06 11:33:00,65.0,52.0,29.98,East,84,3.0,9.0,62,0.00,,,0.00,,2013-05-06 15:33:00,
2013-05-06 11:42:00,65.0,52.0,29.98,East,84,3.0,9.0,62,0.00,,,0.00,,2013-05-06 15:42:00,
2013-05-06 11:53:00,66.0,52.0,29.98,NE,42,4.0,8.0,60,0.00,,,0.00,,2013-05-06 15:53:00,
2013-05-06 12:03:00,67.0,51.0,29.98,ENE,71,6.0,12.0,57,0.00,,,0.00,,2013-05-06 16:03:00,
2013-05-06 12:13:00,67.0,51.0,29.98,ENE,71,6.0,12.0,57,0.00,,,0.00,,2013-05-06 16:13:00,
2013-05-06 12:23:00,68.0,53.0,29.98,ENE,61,2.0,9.0,58,0.00,,,0.00,,2013-05-06 16:23:00,
2013-05-06 12:32:00,68.0,54.0,29.97,NE,48,4.0,12.0,60,0.00,,,0.00,,2013-05-06 16:32:00,
2013-05-06 12:42:00,68.0,54.0,29.97,NE,48,4.0,12.0,60,0.00,,,0.00,,2013-05-06 16:42:00,
2013-05-06 12:52:00,69.0,52.0,29.97,ENE,72,4.0,11.0,54,0.00,,,0.00,,2013-05-06 16:52:00,
2013-05-06 13:02:00,69.0,51.0,29.96,NE,38,7.0,11.0,53,0.00,,,0.00,,2013-05-06 17:02:00,
2013-05-06 13:12:00,69.0,51.0,29.96,NE,38,7.0,11.0,53,0.00,,,0.00,,2013-05-06 17:12:00,
2013-05-06 13:23:00,70.0,52.0,29.96,ENE,76,6.0,11.0,53,0.00,,,0.00,,2013-05-06 17:23:00,
2013-05-06 13:31:00,70.0,52.0,29.96,ENE,60,6.0,11.0,53,0.00,,,0.00,,2013-05-06 17:31:00,
2013-05-06 13:42:00,70.0,52.0,29.96,ENE,60,6.0,11.0,53,0.00,,,0.00,,2013-05-06 17:42:00,
2013-05-06 13:52:00,71.0,52.0,29.96,East,83,8.0,13.0,52,0.00,,,0.00,,2013-05-06 17:52:00,
2013-05-06 14:01:00,71.0,51.0,29.95,SE,129,7.0,12.0,50,0.00,,,0.00,,2013-05-06 18:01:00,
2013-05-06 14:12:00,71.0,51.0,29.95,SE,129,7.0,12.0,50,0.00,,,0.00,,2013-05-06 18:12:00,
2013-05-06 14:21:00,70.0,52.0,29.95,ENE,67,6.0,12.0,52,0.00,,,0.00,,2013-05-06 18:21:00,
2013-05-06 14:31:00,71.0,52.0,29.95,East,92,5.0,9.0,51,0.00,,,0.00,,2013-05-06 18:31:00,
2013-05-06 14:43:00,71.0,52.0,29.95,East,92,5.0,9.0,51,0.00,,,0.00,,2013-05-06 18:43:00,
2013-05-06 14:52:00,71.0,52.0,29.94,ENE,69,4.0,11.0,51,0.00,,,0.00,,2013-05-06 18:52:00,
2013-05-06 15:01:00,72.0,52.0,29.94,ENE,77,5.0,10.0,50,0.00,,,0.00,,2013-05-06 19:01:00,
2013-05-06 15:11:00,72.0,52.0,29.94,ENE,77,5.0,10.0,50,0.00,,,0.00,,2013-05-06 19:11:00,
2013-05-06 15:22:00,71.0,52.0,29.94,ENE,74,6.0,13.0,51,0.00,,,0.00,,2013-05-06 19:22:00,
2013-05-06 15:32:00,71.0,52.0,29.94,ENE,73,4.0,11.0,52,0.00,,,0.00,,2013-05-06 19:32:00,
2013-05-06 15:41:00,71.0,52.0,29.94,ENE,73,4.0,11.0,52,0.00,,,0.00,,2013-05-06 19:41:00,
2013-05-06 15:52:00,70.0,52.0,29.93,ENE,67,4.0,11.0,52,0.00,,,0.00,,2013-05-06 19:52:00,
2013-05-06 16:02:00,71.0,52.0,29.93,East,79,4.0,13.0,52,0.00,,,0.00,,2013-05-06 20:02:00,
2013-05-06 16:11:00,71.0,52.0,29.93,East,79,4.0,13.0,52,0.00,,,0.00,,2013-05-06 20:11:00,
2013-05-06 16:21:00,71.0,52.0,29.93,ENE,60,5.0,12.0,51,0.00,,,0.00,,2013-05-06 20:21:00,
2013-05-06 16:32:00,73.0,53.0,29.92,ESE,106,5.0,12.0,50,0.00,,,0.00,,2013-05-06 20:32:00,
2013-05-06 16:42:00,73.0,53.0,29.92,ESE,106,5.0,12.0,50,0.00,,,0.00,,2013-05-06 20:42:00,
2013-05-06 16:52:00,72.0,52.0,29.93,ENE,72,5.0,14.0,50,0.00,,,0.00,,2013-05-06 20:52:00,
2013-05-06 17:01:00,72.0,53.0,29.93,ENE,77,6.0,14.0,51,0.00,,,0.00,,2013-05-06 21:01:00,
2013-05-06 17:11:00,72.0,53.0,29.93,ENE,77,6.0,14.0,51,0.00,,,0.00,,2013-05-06 21:11:00,
2013-05-06 17:21:00,71.0,52.0,29.93,ENE,75,6.0,11.0,52,0.00,,,0.00,,2013-05-06 21:21:00,
2013-05-06 17:32:00,70.0,53.0,29.92,NE,44,3.0,12.0,55,0.00,,,0.00,,2013-05-06 21:32:00,
2013-05-06 17:43:00,70.0,53.0,29.92,NE,44,3.0,12.0,55,0.00,,,0.00,,2013-05-06 21:43:00,
2013-05-06 17:53:00,71.0,53.0,29.92,East,80,7.0,13.0,53,0.00,,,0.00,,2013-05-06 21:53:00,
2013-05-06 18:03:00,72.0,52.0,29.92,NE,55,4.0,10.0,50,0.00,,,0.00,,2013-05-06 22:03:00,
2013-05-06 18:12:00,72.0,52.0,29.92,NE,55,4.0,10.0,50,0.00,,,0.00,,2013-05-06 22:12:00,
2013-05-06 18:22:00,71.0,52.0,29.93,East,90,5.0,10.0,51,0.00,,,0.00,,2013-05-06 22:22:00,
2013-05-06 18:33:00,70.0,53.0,29.93,East,86,4.0,12.0,55,0.00,,,0.00,,2013-05-06 22:33:00,
2013-05-06 18:45:00,70.0,53.0,29.93,East,86,4.0,12.0,55,0.00,,,0.00,,2013-05-06 22:45:00,
2013-05-06 18:52:00,70.0,52.0,29.93,ESE,118,6.0,12.0,53,0.00,,,0.00,,2013-05-06 22:52:00,
2013-05-06 19:02:00,69.0,52.0,29.93,SSE,153,3.0,11.0,55,0.00,,,0.00,,2013-05-06 23:02:00,
2013-05-06 19:12:00,69.0,52.0,29.93,SSE,153,3.0,11.0,55,0.00,,,0.00,,2013-05-06 23:12:00,
2013-05-06 19:22:00,69.0,53.0,29.93,SE,139,2.0,7.0,57,0.00,,,0.00,,2013-05-06 23:22:00,
2013-05-06 19:31:00,69.0,53.0,29.94,East,86,4.0,10.0,56,0.00,,,0.00,,2013-05-06 23:31:00,
2013-05-06 19:41:00,69.0,53.0,29.94,East,86,4.0,10.0,56,0.00,,,0.00,,2013-05-06 23:41:00,
2013-05-06 19:52:00,68.0,51.0,29.94,ENE,76,5.0,10.0,55,0.00,,,0.00,,2013-05-06 23:52:00,
2013-05-06 20:01:00,68.0,52.0,29.95,East,98,3.0,9.0,56,0.00,,,0.00,,2013-05-07 00:01:00,
2013-05-06 20:11:00,68.0,52.0,29.95,East,98,3.0,9.0,56,0.00,,,0.00,,2013-05-07 00:11:00,
2013-05-06 20:21:00,67.0,50.0,29.95,East,79,4.0,10.0,55,0.00,,,0.00,,2013-05-07 00:21:00,
2013-05-06 20:31:00,67.0,51.0,29.95,East,92,2.0,8.0,56,0.00,,,0.00,,2013-05-07 00:31:00,
2013-05-06 20:41:00,67.0,51.0,29.95,East,92,2.0,8.0,56,0.00,,,0.00,,2013-05-07 00:41:00,
2013-05-06 20:52:00,67.0,51.0,29.96,East,82,3.0,7.0,56,0.00,,,0.00,,2013-05-07 00:52:00,
2013-05-06 21:01:00,66.0,51.0,29.96,East,83,3.0,7.0,58,0.00,,,0.00,,2013-05-07 01:01:00,
2013-05-06 21:11:00,66.0,51.0,29.96,East,83,3.0,7.0,58,0.00,,,0.00,,2013-05-07 01:11:00,
2013-05-06 21:21:00,66.0,51.0,29.96,East,96,1.0,6.0,59,0.00,,,0.00,,2013-05-07 01:21:00,
2013-05-06 21:32:00,65.0,52.0,29.97,ENE,68,1.0,3.0,62,0.00,,,0.00,,2013-05-07 01:32:00,
2013-05-06 21:42:00,65.0,52.0,29.97,ENE,68,1.0,3.0,62,0.00,,,0.00,,2013-05-07 01:42:00,
2013-05-06 21:53:00,65.0,52.0,29.97,ENE,68,0.0,1.0,63,0.00,,,0.00,,2013-05-07 01:53:00,
2013-05-06 22:02:00,64.0,52.0,29.98,ENE,68,0.0,1.0,66,0.00,,,0.00,,2013-05-07 02:02:00,
2013-05-06 22:11:00,64.0,52.0,29.98,ENE,68,0.0,1.0,66,0.00,,,0.00,,2013-05-07 02:11:00,
2013-05-06 22:21:00,64.0,53.0,29.98,ENE,68,0.0,1.0,68,0.00,,,0.00,,2013-05-07 02:21:00,
2013-05-06 22:31:00,63.0,53.0,29.98,ENE,68,0.0,1.0,69,0.00,,,0.00,,2013-05-07 02:31:00,
2013-05-06 22:41:00,63.0,53.0,29.98,ENE,68,0.0,1.0,69,0.00,,,0.00,,2013-05-07 02:41:00,
2013-05-06 22:52:00,63.0,53.0,29.99,ENE,68,0.0,2.0,71,0.00,,,0.00,,2013-05-07 02:52:00,
2013-05-06 23:01:00,62.0,53.0,29.99,ENE,68,0.0,1.0,72,0.00,,,0.00,,2013-05-07 03:01:00,
2013-05-06 23:11:00,62.0,53.0,29.99,ENE,68,0.0,1.0,72,0.00,,,0.00,,2013-05-07 03:11:00,
2013-05-06 23:22:00,62.0,53.0,29.99,ENE,68,0.0,0.0,73,0.00,,,0.00,,2013-05-07 03:22:00,
2013-05-06 23:32:00,61.0,52.0,29.99,ENE,68,0.0,1.0,73,0.00,,,0.00,,2013-05-07 03:32:00,
2013-05-06 23:42:00,61.0,52.0,29.99,ENE,68,0.0,1.0,73,0.00,,,0.00,,2013-05-07 03:42:00,
2013-05-06 23:53:00,60.0,49.0,29.99,ENE,67,1.0,2.0,67,0.00,,,0.00,,2013-05-07 03:53:00,